Fitchburg, MA

10:38 PM EDT on October 21, 2017 (GMT -0400)
Fitchburg Municipal

Weather History for KFIT - March, 2013

Change the Weather History Date:

Friday, March 15, 2013

  Actual Average (KORH) Record (KORH)
Temperature  
Mean Temperature 29 °F -  
Max Temperature 39 °F 41 °F 81 °F (1990)
Min Temperature 19 °F 24 °F 2 °F (1993)
Degree Days  
Heating Degree Days 36    
Moisture  
Dew Point 15 °F    
Average Humidity 56    
Maximum Humidity 89    
Minimum Humidity 24    
Precipitation  
Precipitation 0.00 in - - ()
Sea Level Pressure  
Sea Level Pressure 29.76 in    
Wind  
Wind Speed 11 mph (West)    
Max Wind Speed 14 mph    
Max Gust Speed 26 mph    
Visibility 9 miles    
Events Snow    
Averages and records for this station are not official NWS values.
T = Trace of Precipitation, MM = Missing Value Source: NWS Daily Summary

Daily Weather History Graph

Daily Weather History Graph

Search for Another Location

Airport or City:

Trip Planner

Search our weather history database for the weather conditions in past years. The results will help you decide how hot, cold, wet, or windy it might be!

Date:

Astronomy

Mar. 15, 2013 Rise Set
Actual Time 6:58 AM EDT 6:53 PM EDT
Civil Twilight 6:30 AM EDT 7:21 PM EDT
Nautical Twilight 5:57 AM EDT 7:54 PM EDT
Astronomical Twilight 5:24 AM EDT 8:27 PM EDT
Moon 8:41 AM EDT (3/15) 11:11 PM EDT (3/15)
Length of Visible Light 12h 51m
Length of Day
11h 55m
Waxing Crescent, 15% of the Moon is Illuminated
Mar 15
Waxing Crescent
Mar 19
First Quarter
Mar 27
Full
Apr 3
Last Quarter
Apr 10
New

Hourly Weather History & Observations

Time (EDT) Temp. Windchill Dew Point Humidity Pressure Visibility Wind Dir Wind Speed Gust Speed Precip Events Conditions
12:52 AM 21.9 °F 9.2 °F 10.0 °F 60% 29.85 in 10.0 mi NW 13.8 mph 20.7 mph N/A   Mostly Cloudy
1:52 AM 21.9 °F 10.4 °F 9.0 °F 58% 29.86 in 10.0 mi NW 11.5 mph 20.7 mph N/A   Overcast
2:52 AM 21.9 °F 9.2 °F 8.1 °F 55% 29.86 in 10.0 mi NW 13.8 mph 21.9 mph N/A   Mostly Cloudy
3:52 AM 21.0 °F 8.1 °F 7.0 °F 55% 29.85 in 10.0 mi NW 13.8 mph 24.2 mph N/A   Clear
4:52 AM 19.9 °F 8.6 °F 5.0 °F 52% 29.86 in 10.0 mi NNW 10.4 mph - N/A   Clear
5:52 AM 19.9 °F 12.1 °F 5.0 °F 52% 29.87 in 10.0 mi NW 5.8 mph - N/A   Clear
6:52 AM 19.0 °F 12.3 °F 5.0 °F 54% 29.88 in 10.0 mi West 4.6 mph - N/A   Clear
7:52 AM 19.9 °F 12.1 °F 6.1 °F 55% 29.88 in 10.0 mi Variable 5.8 mph - N/A   Clear
8:52 AM 24.1 °F 15.2 °F 7.0 °F 48% 29.88 in 10.0 mi WNW 8.1 mph - N/A   Clear
9:52 AM 26.1 °F 17.6 °F 6.1 °F 43% 29.87 in 10.0 mi WNW 8.1 mph - N/A   Clear
10:52 AM 30.0 °F 21.7 °F 5.0 °F 35% 29.84 in 10.0 mi WNW 9.2 mph - N/A   Partly Cloudy
11:52 AM 30.9 °F 21.7 °F 3.9 °F 32% 29.81 in 10.0 mi West 11.5 mph - N/A   Overcast
12:52 PM 35.1 °F 26.9 °F 3.0 °F 26% 29.77 in 10.0 mi West 11.5 mph 18.4 mph N/A   Scattered Clouds
1:52 PM 37.9 °F 30.5 °F 3.9 °F 24% 29.73 in 10.0 mi SW 11.5 mph 19.6 mph N/A   Clear
2:52 PM 39.0 °F 32.3 °F 10.9 °F 32% 29.70 in 10.0 mi WSW 10.4 mph 19.6 mph N/A   Mostly Cloudy
3:52 PM 39.0 °F 31.8 °F 14.0 °F 36% 29.68 in 10.0 mi SW 11.5 mph 17.3 mph N/A   Overcast
4:52 PM 39.0 °F 31.0 °F 16.0 °F 39% 29.65 in 10.0 mi West 13.8 mph 26.5 mph N/A   Overcast
5:52 PM 37.0 °F 28.9 °F 23.0 °F 57% 29.65 in 10.0 mi WSW 12.7 mph 23.0 mph N/A   Overcast
6:52 PM 37.0 °F 33.3 °F 24.1 °F 59% 29.65 in 10.0 mi SW 4.6 mph - N/A   Overcast
7:52 PM 37.0 °F 31.0 °F 26.1 °F 65% 29.67 in 10.0 mi WSW 8.1 mph 20.7 mph N/A   Overcast
8:52 PM 35.1 °F 27.4 °F 26.1 °F 70% 29.67 in 10.0 mi WSW 10.4 mph 19.6 mph N/A   Scattered Clouds
9:17 PM 35.6 °F 28.0 °F 28.4 °F 75% 29.66 in 2.5 mi West 10.4 mph - 0.00 in Snow Light Snow
9:26 PM 33.8 °F 27.0 °F 28.4 °F 81% 29.65 in 1.5 mi West 8.1 mph - 0.00 in Snow Light Snow
9:45 PM 33.8 °F 27.0 °F 30.2 °F 87% 29.66 in 1.2 mi WSW 8.1 mph - 0.00 in Snow Light Snow
9:52 PM 33.1 °F 24.9 °F 30.0 °F 89% 29.67 in 2.5 mi West 10.4 mph 17.3 mph 0.00 in Snow Light Snow
9:59 PM 33.8 °F 26.4 °F 28.4 °F 81% 29.65 in 9.0 mi WSW 9.2 mph - 0.00 in   Scattered Clouds
10:52 PM 34.0 °F 26.0 °F 27.0 °F 75% 29.68 in 10.0 mi West 10.4 mph - 0.00 in   Clear
11:52 PM 34.0 °F 25.0 °F 25.0 °F 70% 29.69 in 10.0 mi WNW 12.7 mph 19.6 mph N/A   Overcast